Total_Precipitation_Accumulation
0.67 0.54 0.72 0.78 0.76 0.89 1.29 1.34 1.28 0.76 0.49 0.46 0.47 0.54 0.54 0.50 0.48 0.49 0.51 0.54 0.56 0.59 0.65 0.69 0.71 0.77 0.76 0.74 0.72 0.65 0.69 0.79 0.83 0.88 0.97 1.08 1.14 1.18 1.25 1.28 1.33 1.38 1.43 1.45
0.74 0.46 0.55 0.64 0.63 0.67 0.79 0.86 0.88 0.66 0.62 0.54 0.50 0.47 0.45 0.45 0.43 0.47 0.49 0.52 0.52 0.50 0.56 0.60 0.69 0.77 0.83 0.82 0.78 0.72 0.68 0.72 0.79 0.86 0.89 0.94 1.03 1.12 1.16 1.24 1.30 1.35 1.44 1.48
0.93 0.52 0.67 0.82 0.73 0.73 0.75 0.75 0.77 0.81 0.74 0.59 0.54 0.50 0.49 0.47 0.44 0.45 0.44 0.44 0.45 0.47 0.52 0.55 0.61 0.70 0.80 0.83 0.80 0.78 0.74 0.73 0.76 0.83 0.90 0.95 0.97 1.06 1.20 1.27 1.41 1.50 1.53 1.62
1.11 0.76 0.97 0.78 0.59 0.61 0.65 0.69 0.72 0.70 0.61 0.56 0.53 0.52 0.51 0.47 0.43 0.41 0.41 0.41 0.40 0.42 0.44 0.45 0.50 0.59 0.71 0.76 0.78 0.79 0.79 0.81 0.82 0.83 0.94 1.03 1.05 1.09 1.19 1.29 1.42 1.56 1.60 1.64
1.29 0.97 0.66 0.44 0.42 0.56 0.65 0.69 0.66 0.54 0.45 0.42 0.42 0.43 0.44 0.41 0.38 0.40 0.41 0.44 0.43 0.43 0.46 0.45 0.48 0.56 0.67 0.74 0.75 0.77 0.81 0.84 0.87 0.89 1.00 1.11 1.11 1.12 1.17 1.23 1.31 1.38 1.45 1.47
1.35 1.15 0.64 0.44 0.28 0.32 0.51 0.75 0.55 0.47 0.46 0.46 0.46 0.54 0.47 0.39 0.36 0.38 0.38 0.40 0.45 0.47 0.46 0.50 0.54 0.57 0.67 0.77 0.86 0.91 0.92 0.94 0.97 1.05 1.16 1.20 1.18 1.16 1.12 1.12 1.13 1.11 1.13 1.12
1.13 1.08 0.58 0.40 0.25 0.27 0.71 0.85 0.47 0.44 0.47 0.50 0.54 0.56 0.48 0.37 0.34 0.39 0.41 0.42 0.44 0.49 0.52 0.56 0.60 0.61 0.65 0.73 0.90 0.99 1.02 1.03 1.04 1.10 1.16 1.19 1.15 1.09 1.06 1.01 1.00 0.97 0.95 0.94
0.88 1.13 0.81 0.42 0.34 0.62 0.80 0.50 0.43 0.44 0.47 0.50 0.48 0.41 0.35 0.36 0.36 0.36 0.37 0.40 0.46 0.53 0.57 0.57 0.64 0.71 0.71 0.77 0.86 0.93 0.98 0.99 0.99 1.00 1.04 1.10 1.11 1.06 1.01 1.00 0.98 0.96 0.96 0.98
0.79 0.87 0.74 0.57 0.62 0.65 0.55 0.50 0.43 0.44 0.44 0.44 0.43 0.41 0.36 0.33 0.34 0.36 0.39 0.41 0.48 0.58 0.63 0.64 0.66 0.72 0.77 0.75 0.76 0.80 0.88 0.93 0.91 0.88 0.89 0.94 0.99 1.01 1.01 1.01 0.99 0.97 0.97 0.99
0.67 0.66 0.57 0.54 0.48 0.44 0.44 0.47 0.43 0.40 0.41 0.43 0.45 0.42 0.38 0.36 0.36 0.35 0.36 0.41 0.48 0.53 0.59 0.62 0.62 0.64 0.68 0.64 0.63 0.66 0.73 0.81 0.84 0.84 0.84 0.84 0.87 0.94 0.99 1.02 1.00 0.95 0.95 0.98
0.60 0.53 0.44 0.43 0.42 0.42 0.40 0.36 0.34 0.32 0.33 0.38 0.41 0.40 0.39 0.40 0.39 0.39 0.40 0.43 0.48 0.54 0.59 0.61 0.59 0.59 0.60 0.59 0.58 0.62 0.64 0.69 0.73 0.79 0.84 0.87 0.88 0.95 1.02 1.03 1.09 1.09 0.99 0.95
0.66 0.52 0.53 0.53 0.45 0.40 0.38 0.37 0.36 0.33 0.32 0.31 0.34 0.39 0.36 0.38 0.37 0.39 0.44 0.45 0.47 0.49 0.55 0.62 0.61 0.58 0.57 0.57 0.59 0.64 0.68 0.68 0.72 0.79 0.83 0.85 0.87 0.93 1.02 1.04 1.08 1.09 1.08 1.04
0.49 0.40 0.38 0.37 0.32 0.30 0.33 0.34 0.33 0.33 0.34 0.36 0.35 0.35 0.37 0.38 0.38 0.41 0.45 0.44 0.48 0.50 0.51 0.56 0.62 0.62 0.59 0.60 0.61 0.65 0.72 0.74 0.75 0.79 0.85 0.84 0.84 0.86 0.93 0.97 1.00 1.01 1.03 1.05
0.27 0.26 0.27 0.25 0.27 0.25 0.27 0.28 0.27 0.27 0.29 0.34 0.37 0.35 0.37 0.39 0.40 0.43 0.49 0.51 0.50 0.49 0.50 0.51 0.55 0.61 0.62 0.60 0.61 0.65 0.70 0.76 0.79 0.82 0.87 0.87 0.84 0.84 0.86 0.89 0.91 0.93 0.98 1.03
0.17 0.22 0.29 0.25 0.20 0.20 0.22 0.22 0.21 0.22 0.25 0.27 0.27 0.30 0.35 0.40 0.46 0.51 0.54 0.54 0.48 0.46 0.46 0.47 0.49 0.54 0.58 0.62 0.63 0.64 0.67 0.71 0.74 0.80 0.86 0.90 0.88 0.86 0.87 0.85 0.86 0.89 0.91 1.01
0.18 0.17 0.17 0.17 0.18 0.18 0.18 0.20 0.24 0.26 0.26 0.27 0.30 0.33 0.38 0.41 0.43 0.46 0.50 0.54 0.53 0.51 0.48 0.45 0.48 0.52 0.56 0.62 0.63 0.62 0.64 0.73 0.77 0.81 0.84 0.86 0.89 0.90 0.89 0.87 0.85 0.85 0.85 0.93
0.26 0.24 0.23 0.23 0.21 0.21 0.20 0.24 0.28 0.29 0.29 0.32 0.38 0.39 0.39 0.38 0.38 0.40 0.45 0.49 0.50 0.51 0.52 0.53 0.54 0.51 0.53 0.57 0.61 0.63 0.64 0.68 0.76 0.79 0.82 0.85 0.86 0.89 0.89 0.88 0.87 0.86 0.85 0.92
0.28 0.29 0.30 0.32 0.30 0.28 0.25 0.25 0.26 0.27 0.30 0.33 0.34 0.35 0.37 0.39 0.43 0.45 0.46 0.44 0.41 0.39 0.41 0.46 0.49 0.48 0.48 0.53 0.60 0.63 0.65 0.67 0.67 0.72 0.79 0.84 0.89 0.90 0.90 0.88 0.85 0.85 0.85 0.90
0.23 0.23 0.23 0.25 0.27 0.27 0.26 0.26 0.27 0.28 0.29 0.30 0.32 0.35 0.36 0.39 0.41 0.42 0.39 0.37 0.38 0.42 0.43 0.41 0.46 0.44 0.46 0.51 0.59 0.60 0.64 0.67 0.68 0.72 0.79 0.87 0.91 0.89 0.91 0.89 0.87 0.84 0.86 0.87
0.17 0.18 0.20 0.22 0.23 0.24 0.26 0.26 0.26 0.27 0.29 0.30 0.30 0.30 0.31 0.35 0.37 0.37 0.35 0.36 0.44 0.52 0.50 0.47 0.44 0.41 0.45 0.50 0.57 0.58 0.63 0.67 0.70 0.73 0.79 0.83 0.86 0.87 0.88 0.89 0.89 0.87 0.86 0.86
0.17 0.19 0.21 0.24 0.24 0.24 0.26 0.26 0.26 0.27 0.27 0.26 0.28 0.31 0.33 0.34 0.35 0.36 0.36 0.37 0.39 0.43 0.43 0.43 0.41 0.44 0.49 0.55 0.59 0.59 0.62 0.67 0.71 0.74 0.78 0.80 0.83 0.85 0.85 0.85 0.87 0.88 0.88 0.87
0.20 0.21 0.23 0.25 0.27 0.27 0.26 0.26 0.25 0.25 0.23 0.23 0.23 0.24 0.26 0.28 0.29 0.30 0.32 0.40 0.43 0.45 0.41 0.38 0.42 0.51 0.59 0.62 0.59 0.58 0.62 0.66 0.69 0.71 0.75 0.79 0.82 0.85 0.85 0.86 0.89 0.89 0.88 0.88
0.21 0.23 0.24 0.25 0.27 0.29 0.27 0.26 0.26 0.25 0.24 0.24 0.26 0.28 0.30 0.32 0.33 0.36 0.38 0.36 0.38 0.41 0.39 0.40 0.48 0.55 0.58 0.55 0.53 0.56 0.61 0.65 0.67 0.70 0.73 0.77 0.82 0.86 0.87 0.86 0.86 0.87 0.87 0.87
0.23 0.22 0.23 0.23 0.23 0.22 0.23 0.23 0.24 0.24 0.25 0.25 0.26 0.29 0.32 0.32 0.30 0.31 0.37 0.40 0.41 0.40 0.38 0.41 0.48 0.51 0.50 0.47 0.48 0.54 0.60 0.64 0.68 0.71 0.73 0.76 0.79 0.81 0.83 0.83 0.83 0.81 0.80 0.80
0.22 0.22 0.21 0.21 0.22 0.23 0.23 0.22 0.21 0.20 0.20 0.21 0.21 0.23 0.26 0.31 0.36 0.34 0.32 0.34 0.36 0.36 0.35 0.38 0.43 0.46 0.45 0.45 0.48 0.54 0.59 0.66 0.73 0.78 0.78 0.79 0.78 0.78 0.79 0.81 0.82 0.81 0.78 0.76
0.20 0.20 0.21 0.21 0.22 0.23 0.23 0.23 0.23 0.21 0.22 0.22 0.20 0.20 0.22 0.23 0.26 0.27 0.28 0.29 0.30 0.32 0.33 0.35 0.38 0.41 0.42 0.45 0.49 0.54 0.58 0.63 0.67 0.70 0.71 0.74 0.75 0.76 0.77 0.77 0.76 0.76 0.74 0.72
0.17 0.18 0.18 0.18 0.16 0.18 0.21 0.23 0.25 0.25 0.25 0.28 0.28 0.23 0.23 0.24 0.24 0.24 0.25 0.26 0.27 0.28 0.30 0.32 0.35 0.38 0.41 0.44 0.46 0.49 0.52 0.56 0.59 0.62 0.66 0.70 0.73 0.74 0.74 0.74 0.74 0.73 0.72 0.71